Hourly Data Report for September 21, 2017

All times are specified in Local Standard Time (LST). Add 1 hour to adjust for Daylight Saving Time where and when it is observed.

BAS CARAQUET
NEW BRUNSWICK

47°48'08.000" N
64°50'00.000" W
5.00 m
8100467
71598
WXS

Download Data

Hourly Data (September 2017)
Hourly Data Report for September 21, 2017
Temp Definition
°C
Dew Point Temp Definition
°C
Rel Hum Definition
%
Wind Dir Definition
10's deg

Wind Spd Definition
km/h
Visibility Definition
km
Stn Press Definition
kPa
Hmdx Definition


Wind Chill Definition


Weather Definition


TIME
00:00 12.2 12.1 99 27 6   101.83     LegendNANA
01:00 12.6 12.5 100 29 8   101.90     LegendNANA
02:00 11.6 11.4 99 30 9   101.90     LegendNANA
03:00 13.8 10.5 81 34 14   101.91     LegendNANA
04:00 13.0 9.9 82 35 13   101.98     LegendNANA
05:00 12.2 10.1 87 36 11   102.01     LegendNANA
06:00 11.7 10.4 92 1 9   102.07     LegendNANA
07:00 13.0 10.1 82 3 9   102.12     LegendNANA
08:00 14.2 10.1 76 3 12   102.18     LegendNANA
09:00 14.9 9.4 69 3 13   102.24     LegendNANA
10:00 15.3 9.2 67 4 15   102.26     LegendNANA
11:00 16.0 9.6 66 3 12   102.29     LegendNANA
12:00 16.0 8.8 62 3 8   102.26     LegendNANA
13:00 16.7 9.1 61 2 7   102.27     LegendNANA
14:00 17.6 9.5 59 2 4   102.23     LegendNANA
15:00 17.6 9.2 58 11 7   102.17     LegendNANA
16:00 16.7 7.7 55 11 8   102.15     LegendNANA
17:00 14.8 7.7 63 13 10   102.20     LegendNANA
18:00 12.6 7.5 71 13 7   102.26     LegendNANA
19:00 9.5 6.9 84 14 3   102.32     LegendNANA
20:00 8.2 7.0 92 13 4   102.32     LegendNANA
21:00 7.9 7.2 96 13 4   102.30     LegendNANA
22:00 6.4 5.9 97 14 2   102.28     LegendNANA
23:00 5.9 5.6 98   0   102.34     LegendNANA

Notes on Data Quality.

Legend

  • E = Estimated
  • M = Missing
  • NA = Not Available
  • ‡ = Partner data that is not subject to review by the National Climate Archives
Date modified: